Regional Weather Roundup
Issued by NWS Goodland, KS

Home | Current Version | Previous Version | Text Only | Print | Product List | Glossary On
Versions: 1 2 3 4 5 6 7 8 9 10 11 12 13 14 15 16 17 18 19 20 21 22 23 24 25 26 27 28 29 30 31 32 33 34 35 36 37 38 39 40 41 42 43 44 45 46 47 48 49 50
000
ASUS43 KGLD 220408
RWRGLD

GOODLAND FORECAST AREA HOURLY WEATHER ROUNDUP
NATIONAL WEATHER SERVICE GOODLAND KS
1000 PM MDT MON MAY 21 2018

...OFFICIAL OBSERVATIONS...

CITY           SKY/WX    TMP DP  RH WIND       PRES   REMARKS
GOODLAND KS    MOCLDY    62  56  80 S13       29.94R
HILL CITY KS   CLOUDY    70  59  68 SE10      29.95R
IMPERIAL NEB   PTCLDY    65  58  78 E9        29.91S
MCCOOK NEB     MOCLDY    67  59  75 E6        29.91R
AKRON CO       MOCLDY    61  55  81 NE9       29.96S
BURLINGTON CO  PTCLDY    64  42  44 SW12      29.97R
LIMON CO       PTCLDY    60  39  45 SW8       30.01S
$$

...UNOFFICIAL OBSERVATIONS...

CITY           SKY/WX    TMP DP  RH WIND       PRES   REMARKS
COLBY KS       MOCLDY    68  59  73 SE13      29.95R
NORTON KS      CLEAR     70  57  64 SE8       29.93
SHARON SPRINGS   N/A     66  56  70 MISG        N/A
KIT CARSON CO    N/A     60  40  48 CALM        N/A
YUMA CO        MOCLDY    59  54  82 CALM      29.94R
$$




USA.gov is the U.S. government's official web portal to all federal, state and local government web resources and services.